Weather History for New Richmond, WI

Change the Weather History Date:

Monday, December 31, 2012

  Actual Average (KMSP) Record (KMSP)
Temperature  
Mean Temperature 5 °F 16 °F  
Max Temperature 17 °F 24 °F 50 °F (1904)
Min Temperature -7 °F 9 °F -24 °F (1973)
Degree Days  
Heating Degree Days 60 49  
Month to date heating degree days 1405  
Since 1 July heating degree days 3023  
Cooling Degree Days 0 0  
Month to date cooling degree days 0  
Year to date cooling degree days 753  
Moisture  
Dew Point 2 °F    
Average Humidity 76    
Maximum Humidity 100    
Minimum Humidity 61    
Precipitation  
Precipitation 0.00 in 0.03 in 0.98 in (2006)
Month to date precipitation 1.16  
Year to date precipitation 30.61  
Snow  
Snow 0.00 in 0.40 in 7.20 in (1977)
Month to date snowfall 11.9  
Since 1 July snowfall 21.8  
Snow Depth -    
Sea Level Pressure  
Sea Level Pressure 30.12 in    
Wind  
Wind Speed 9 mph (NW)    
Max Wind Speed 17 mph    
Max Gust Speed 22 mph    
Visibility 10 miles    
Events Snow    
T = Trace of Precipitation, MM = Missing Value Source: NWS Daily Summary

Daily Weather History Graph

Daily Weather History Graph

Search for Another Location

Airport:

Trip Planner

Search our weather history database for the weather conditions in past years. The results will help you decide how hot, cold, wet, or windy it might be!

Date:

Astronomy

Dec. 31, 2012 Rise Set
Actual Time 7:48 AM CST 4:38 PM CST
Civil Twilight 7:15 AM CST 5:11 PM CST
Nautical Twilight 6:37 AM CST 5:49 PM CST
Astronomical Twilight 6:02 AM CST 6:24 PM CST
Moon 8:19 PM CST (12/31) 9:21 AM CST (12/31)
Length of Visible Light 9h 56m
Length of Day
8h 49m
Waning Gibbous, 90% of the Moon is Illuminated
Dec 31
Waning Gibbous
Jan 4
Last Quarter
Jan 11
New
Jan 18
First Quarter
Jan 26
Full

Hourly Weather History & Observations

Time (CST) Temp. Windchill Dew Point Humidity Pressure Visibility Wind Dir Wind Speed Gust Speed Precip Events Conditions
12:15 AM 14.0 °F 3.9 °F 12.2 °F 93% 29.93 in 7.0 mi West 6.9 mph - N/A   Clear
12:35 AM 14.0 °F 2.9 °F 14.0 °F 100% 29.94 in 7.0 mi WNW 8.1 mph - N/A   Clear
12:55 AM 15.8 °F 3.4 °F 14.0 °F 93% 29.94 in 10.0 mi WNW 10.4 mph - N/A   Mostly Cloudy
1:15 AM 15.8 °F 2.7 °F 14.0 °F 93% 29.94 in 10.0 mi NW 11.5 mph - N/A   Overcast
1:35 AM 17.6 °F 3.7 °F 14.0 °F 86% 29.95 in 10.0 mi NW 13.8 mph - N/A   Overcast
1:55 AM 15.8 °F -0.2 °F 12.2 °F 86% 29.96 in 10.0 mi WNW 17.3 mph - N/A   Overcast
2:15 AM 15.8 °F 1.4 °F 12.2 °F 86% 29.98 in 10.0 mi NW 13.8 mph - N/A   Overcast
2:35 AM 15.8 °F 2.7 °F 12.2 °F 86% 30.00 in 10.0 mi NW 11.5 mph - N/A   Overcast
2:55 AM 15.8 °F 2.1 °F 12.2 °F 86% 30.00 in 10.0 mi WNW 12.7 mph - N/A   Overcast
3:15 AM 17.6 °F 5.0 °F 12.2 °F 79% 30.02 in 10.0 mi WNW 11.5 mph 18.4 mph N/A   Overcast
3:35 AM 17.6 °F 3.7 °F 12.2 °F 79% 30.02 in 10.0 mi WNW 13.8 mph 17.3 mph N/A   Overcast
3:55 AM 17.6 °F 7.3 °F 12.2 °F 79% 30.03 in 10.0 mi NW 8.1 mph - N/A Snow Light Snow
4:15 AM 17.6 °F 5.7 °F 12.2 °F 79% 30.03 in 10.0 mi NNW 10.4 mph 17.3 mph N/A   Overcast
4:35 AM 15.8 °F 2.7 °F 10.4 °F 79% 30.04 in 10.0 mi NW 11.5 mph 21.9 mph N/A   Mostly Cloudy
4:55 AM 14.0 °F -2.0 °F 8.6 °F 79% 30.04 in 10.0 mi NW 16.1 mph - N/A   Scattered Clouds
5:15 AM 14.0 °F 0.5 °F 8.6 °F 79% 30.05 in 10.0 mi NW 11.5 mph - N/A   Scattered Clouds
5:35 AM 14.0 °F -1.4 °F 8.6 °F 79% 30.05 in 10.0 mi NW 15.0 mph 19.6 mph N/A   Scattered Clouds
5:55 AM 12.2 °F -1.8 °F 6.8 °F 79% 30.08 in 10.0 mi NW 11.5 mph - N/A   Clear
6:15 AM 12.2 °F 1.7 °F 5.0 °F 73% 30.09 in 10.0 mi West 6.9 mph - N/A   Clear
6:35 AM 10.4 °F 0.8 °F 5.0 °F 79% 30.11 in 10.0 mi West 5.8 mph - N/A   Clear
6:55 AM 10.4 °F -0.4 °F 5.0 °F 79% 30.11 in 10.0 mi West 6.9 mph - N/A   Clear
7:15 AM 10.4 °F -3.3 °F 5.0 °F 79% 30.10 in 10.0 mi WNW 10.4 mph - N/A   Clear
7:35 AM 8.6 °F -2.6 °F 3.2 °F 79% 30.10 in 10.0 mi NW 6.9 mph - N/A   Clear
7:55 AM 8.6 °F 0.1 °F 3.2 °F 79% 30.10 in 10.0 mi WNW 4.6 mph - N/A   Clear
8:15 AM 8.6 °F -1.3 °F 3.2 °F 79% 30.11 in 10.0 mi West 5.8 mph - N/A   Clear
8:35 AM 8.6 °F -1.3 °F 3.2 °F 79% 30.12 in 10.0 mi WNW 5.8 mph - N/A   Clear
8:55 AM 8.6 °F -2.6 °F 3.2 °F 79% 30.12 in 10.0 mi NW 6.9 mph - N/A   Clear
9:15 AM 8.6 °F -3.7 °F 3.2 °F 79% 30.13 in 10.0 mi NW 8.1 mph - N/A   Clear
9:35 AM 10.4 °F -5.4 °F 3.2 °F 73% 30.13 in 10.0 mi NNW 13.8 mph - N/A   Clear
9:55 AM 10.4 °F -4.8 °F 3.2 °F 73% 30.14 in 10.0 mi NW 12.7 mph - N/A   Clear
10:15 AM 10.4 °F -4.8 °F 3.2 °F 73% 30.14 in 10.0 mi NNW 12.7 mph - N/A   Clear
10:35 AM 10.4 °F -4.1 °F 3.2 °F 73% 30.15 in 10.0 mi NNW 11.5 mph - N/A   Clear
10:55 AM 10.4 °F -4.1 °F 3.2 °F 73% 30.15 in 10.0 mi NNW 11.5 mph - N/A   Clear
11:15 AM 10.4 °F -4.8 °F 3.2 °F 73% 30.14 in 10.0 mi NNW 12.7 mph - N/A   Clear
11:35 AM 10.4 °F -4.1 °F 3.2 °F 73% 30.14 in 10.0 mi NW 11.5 mph - N/A   Clear
11:55 AM 10.4 °F -2.4 °F 3.2 °F 73% 30.13 in 10.0 mi NW 9.2 mph - N/A   Clear
12:15 PM 10.4 °F -3.3 °F 3.2 °F 73% 30.12 in 10.0 mi NW 10.4 mph - N/A   Clear
12:35 PM 10.4 °F -3.3 °F 3.2 °F 73% 30.13 in 10.0 mi NW 10.4 mph - N/A   Clear
12:55 PM 10.4 °F -3.3 °F 3.2 °F 73% 30.13 in 10.0 mi WNW 10.4 mph - N/A   Clear
1:15 PM 10.4 °F -4.1 °F 1.4 °F 67% 30.13 in 10.0 mi WNW 11.5 mph - N/A   Clear
1:35 PM 10.4 °F -3.3 °F 1.4 °F 67% 30.14 in 10.0 mi WNW 10.4 mph - N/A   Clear
1:55 PM 10.4 °F -0.4 °F 1.4 °F 67% 30.14 in 10.0 mi WNW 6.9 mph - N/A   Clear
2:15 PM 10.4 °F -1.5 °F 1.4 °F 67% 30.14 in 10.0 mi NW 8.1 mph - N/A   Clear
2:35 PM 10.4 °F -1.5 °F 1.4 °F 67% 30.14 in 10.0 mi WNW 8.1 mph - N/A   Clear
2:55 PM 10.4 °F -2.4 °F 1.4 °F 67% 30.15 in 10.0 mi West 9.2 mph - N/A   Clear
3:15 PM 10.4 °F -3.3 °F -0.4 °F 62% 30.16 in 10.0 mi NW 10.4 mph - N/A   Clear
3:35 PM 10.4 °F -0.4 °F -0.4 °F 62% 30.16 in 10.0 mi NW 6.9 mph - N/A   Clear
3:55 PM 8.6 °F -2.6 °F -0.4 °F 67% 30.16 in 10.0 mi NW 6.9 mph - N/A   Clear
4:15 PM 8.6 °F -2.6 °F -2.2 °F 62% 30.17 in 10.0 mi NW 6.9 mph - N/A   Clear
4:35 PM 8.6 °F -2.6 °F -2.2 °F 62% 30.18 in 10.0 mi NW 6.9 mph - N/A   Clear
4:55 PM 6.8 °F -3.5 °F -4.0 °F 61% 30.18 in 10.0 mi WNW 5.8 mph - N/A   Clear
5:15 PM 5.0 °F -6.9 °F -4.0 °F 66% 30.18 in 10.0 mi NW 6.9 mph - N/A   Clear
5:35 PM 5.0 °F -6.9 °F -4.0 °F 66% 30.18 in 10.0 mi NW 6.9 mph - N/A   Clear
6:15 PM 3.2 °F -4.2 °F -4.0 °F 72% 30.18 in 10.0 mi NW 3.5 mph - N/A   Clear
6:35 PM 3.2 °F -6.2 °F -4.0 °F 72% 30.19 in 10.0 mi NW 4.6 mph - N/A   Clear
7:15 PM 1.4 °F -6.2 °F -5.8 °F 72% 30.19 in 10.0 mi NNW 3.5 mph - N/A   Clear
7:35 PM 3.2 °F -7.8 °F -4.0 °F 72% 30.19 in 10.0 mi NNW 5.8 mph - N/A   Clear
7:55 PM 3.2 °F -7.8 °F -5.8 °F 66% 30.19 in 10.0 mi NNW 5.8 mph - N/A   Clear
8:15 PM 1.4 °F -11.3 °F -5.8 °F 72% 30.20 in 10.0 mi NNW 6.9 mph - N/A   Clear
8:35 PM 1.4 °F -11.3 °F -5.8 °F 72% 30.20 in 10.0 mi NNW 6.9 mph - N/A   Clear
8:55 PM 1.4 °F -9.9 °F -5.8 °F 72% 30.21 in 10.0 mi North 5.8 mph - N/A   Clear
9:15 PM 3.2 °F -7.8 °F -4.0 °F 72% 30.20 in 10.0 mi NNW 5.8 mph - N/A   Clear
9:35 PM 1.4 °F -6.2 °F -4.0 °F 78% 30.21 in 10.0 mi NNW 3.5 mph - N/A   Clear
10:15 PM -4.0 °F -12.4 °F -9.4 °F 78% 30.21 in 10.0 mi WNW 3.5 mph - N/A   Clear
10:35 PM -4.0 °F -12.4 °F -7.6 °F 85% 30.22 in 10.0 mi WNW 3.5 mph - N/A   Clear
10:55 PM -4.0 °F -12.4 °F -7.6 °F 85% 30.23 in 10.0 mi NW 3.5 mph - N/A   Clear
11:15 PM -7.6 °F -16.5 °F -13.0 °F 77% 30.23 in 10.0 mi WNW 3.5 mph - N/A   Clear
11:35 PM -7.6 °F - -13.0 °F 77% 30.23 in 10.0 mi Calm Calm - N/A   Clear
11:55 PM -7.6 °F - -13.0 °F 77% 30.23 in 10.0 mi Calm Calm - N/A   Clear